This is the latest recevied weather packets stored in our database for station/object SV9TNF-57. If no packets are shown the sender has not sent any weather packets the latest 10 day(s).
| Time | Temp. | Humidity | Pressure | Rain* | Wind** | Luminosity | Snow |
|---|---|---|---|---|---|---|---|
| 1787884910 | 28.33° C | 48% | 995.1 hPa | 0 mm | 2.24 m/s, 270° | - | - |
| 1787884610 | 28.33° C | 48% | 995.1 hPa | 0 mm | 0 m/s | - | - |
| 1787884310 | 28.33° C | 48% | 995.2 hPa | 0 mm | 0 m/s | - | - |
| 1787884010 | 28.33° C | 48% | 995.1 hPa | 0 mm | 0 m/s | - | - |
| 1787883709 | 27.78° C | 48% | 995.2 hPa | 0 mm | 0 m/s | - | - |
| 1787883410 | 27.78° C | 48% | 995.1 hPa | 0 mm | 0 m/s | - | - |
| 1787883110 | 27.78° C | 49% | 995.1 hPa | 0 mm | 0.89 m/s, 285° | - | - |
| 1787882809 | 27.78° C | 49% | 995.3 hPa | 0 mm | 0 m/s | - | - |
| 1787882510 | 27.78° C | 48% | 995.2 hPa | 0 mm | 0 m/s | - | - |
| 1787882216 | 27.78° C | 48% | 995.1 hPa | 0 mm | 0.45 m/s, 272° | - | - |
| 1787881609 | 27.78° C | 50% | 995.1 hPa | 0 mm | 0 m/s | - | - |
| 1787881309 | 27.78° C | 49% | 995.4 hPa | 0 mm | 0.45 m/s, 272° | - | - |
| 1787881008 | 28.33° C | 48% | 995.4 hPa | 0 mm | 2.24 m/s, 290° | - | - |
| 1787880709 | 28.33° C | 48% | 995.4 hPa | 0 mm | 1.34 m/s, 293° | - | - |
| 1787880408 | 28.33° C | 48% | 995.4 hPa | 0 mm | 1.34 m/s, 287° | - | - |
| 1787880108 | 28.33° C | 48% | 995.7 hPa | 0 mm | 0.45 m/s, 274° | - | - |
| 1787879808 | 28.33° C | 48% | 995.6 hPa | 0 mm | 0 m/s | - | - |
| 1787879508 | 28.33° C | 49% | 995.6 hPa | 0 mm | 1.34 m/s, 303° | - | - |
| 1787879208 | 27.78° C | 49% | 995.6 hPa | 0 mm | 1.34 m/s, 275° | - | - |
| 1787878908 | 27.78° C | 50% | 995.6 hPa | 0 mm | 1.34 m/s, 268° | - | - |
| 1787878608 | 27.22° C | 50% | 995.6 hPa | 0 mm | 0 m/s | - | - |
| 1787878308 | 27.78° C | 50% | 996 hPa | 0 mm | 0.89 m/s, 317° | - | - |
| 1787878008 | 27.78° C | 49% | 995.8 hPa | 0 mm | 0 m/s | - | - |
| 1787877707 | 27.22° C | 50% | 995.8 hPa | 0 mm | 0 m/s | - | - |
| 1787877407 | 27.78° C | 49% | 995.8 hPa | 0 mm | 0 m/s | - | - |
* Rain latest hour (hover to see other rain measurements)
** Current wind speed in m/s (hover to see current wind gust speed)